This is the latest recevied weather packets stored in our database for station/object IN3XSV. If no packets are shown the sender has not sent any weather packets the latest 10 day(s).
| Time | Temp. | Humidity | Pressure | Rain* | Wind** | Luminosity | Snow |
|---|---|---|---|---|---|---|---|
| 1778318012 | 18.89° C | 66% | 1010.6 hPa | 0 mm | - | - | - |
| 1778317712 | 17.78° C | 66% | 1010.7 hPa | 0 mm | - | - | - |
| 1778317412 | 17.78° C | 65% | 1010.8 hPa | 0 mm | - | - | - |
| 1778317112 | 17.78° C | 66% | 1010.6 hPa | 0 mm | - | - | - |
| 1778316812 | 17.22° C | 66% | 1010.8 hPa | 0 mm | - | - | - |
| 1778316512 | 16.67° C | 65% | 1010.9 hPa | 0 mm | - | - | - |
| 1778316212 | 16.67° C | 66% | 1011 hPa | 0 mm | - | - | - |
| 1778315912 | 16.67° C | 65% | 1010.9 hPa | 0 mm | - | - | - |
| 1778315612 | 16.67° C | 67% | 1010.9 hPa | 0 mm | - | - | - |
| 1778315312 | 16.67° C | 69% | 1011 hPa | 0 mm | - | - | - |
| 1778315012 | 16.67° C | 69% | 1011 hPa | 0 mm | - | - | - |
| 1778314712 | 16.67° C | 69% | 1010.9 hPa | 0 mm | - | - | - |
| 1778314412 | 16.11° C | 71% | 1011.1 hPa | 0 mm | - | - | - |
| 1778314112 | 16.11° C | 71% | 1011.1 hPa | 0 mm | - | - | - |
| 1778313812 | 15.56° C | 72% | 1011.1 hPa | 0 mm | - | - | - |
| 1778313512 | 15.56° C | 72% | 1011.2 hPa | 0 mm | - | - | - |
| 1778313212 | 15.56° C | 74% | 1011.3 hPa | 0 mm | - | - | - |
| 1778312912 | 15° C | 76% | 1011.4 hPa | 0 mm | - | - | - |
| 1778312612 | 15° C | 77% | 1011.3 hPa | 0 mm | - | - | - |
| 1778312312 | 14.44° C | 77% | 1011.4 hPa | 0 mm | - | - | - |
| 1778312012 | 13.89° C | 77% | 1011.5 hPa | 0 mm | - | - | - |
| 1778311712 | 13.89° C | 77% | 1011.6 hPa | 0 mm | - | - | - |
| 1778311412 | 13.89° C | 78% | 1011.6 hPa | 0 mm | - | - | - |
| 1778311112 | 13.89° C | 78% | 1011.5 hPa | 0 mm | - | - | - |
| 1778310812 | 13.89° C | 78% | 1011.7 hPa | 0 mm | - | - | - |
* Rain latest hour (hover to see other rain measurements)
** Current wind speed in m/s (hover to see current wind gust speed)